�������l�o���
Date,Time,MP-1(��Sv/h),MP-2(��Sv/h),MP-3(��Sv/h),MP-4(��Sv/h),MP-5(��Sv/h),MP-6(��Sv/h),MP-7(��Sv/h),MP-8(��Sv/h),����,����(m/s),���J
2018/12/29,00:00,0.778,1.164,0.818,1.496,1.059,0.453,0.799,0.755,��,2.0,��
2018/12/29,00:10,0.780,1.166,0.819,1.494,1.059,0.452,0.798,0.758,��,2.6,��
2018/12/29,00:20,0.780,1.166,0.817,1.494,1.060,0.451,0.797,0.756,��,3.5,��
2018/12/29,00:30,0.781,1.165,0.818,1.493,1.058,0.451,0.796,0.757,��,2.3,��
2018/12/29,00:40,0.780,1.166,0.817,1.496,1.060,0.452,0.797,0.758,��,3.6,��
2018/12/29,00:50,0.778,1.167,0.817,1.494,1.059,0.451,0.798,0.759,���쐼,3.3,��
2018/12/29,01:00,0.779,1.164,0.817,1.495,1.060,0.451,0.796,0.757,��,3.3,��
2018/12/29,01:10,0.779,1.164,0.819,1.494,1.059,0.451,0.796,0.756,��,3.8,��
2018/12/29,01:20,0.781,1.165,0.818,1.495,1.059,0.451,0.797,0.756,���k��,4.2,��
2018/12/29,01:30,0.778,1.166,0.819,1.493,1.058,0.451,0.798,0.756,��,1.7,��
2018/12/29,01:40,0.779,1.166,0.819,1.495,1.059,0.452,0.799,0.755,��,3.1,��
2018/12/29,01:50,0.779,1.166,0.817,1.496,1.057,0.452,0.799,0.756,��,4.6,��
2018/12/29,02:00,0.779,1.164,0.816,1.497,1.059,0.450,0.797,0.756,��,5.4,��
2018/12/29,02:10,0.779,1.165,0.820,1.498,1.060,0.451,0.798,0.756,���k��,8.2,��
2018/12/29,02:20,0.778,1.164,0.817,1.495,1.061,0.452,0.797,0.755,��,6.4,��
2018/12/29,02:30,0.780,1.167,0.817,1.495,1.059,0.450,0.798,0.755,��,6.4,��
2018/12/29,02:40,0.777,1.165,0.817,1.495,1.057,0.449,0.798,0.756,���k��,6.9,��
2018/12/29,02:50,0.780,1.162,0.817,1.491,1.058,0.450,0.799,0.756,��,7.6,��
2018/12/29,03:00,0.776,1.163,0.817,1.493,1.054,0.450,0.797,0.755,��,6.3,��
2018/12/29,03:10,0.778,1.162,0.816,1.495,1.056,0.450,0.798,0.754,��,7.2,��
2018/12/29,03:20,0.778,1.162,0.816,1.494,1.057,0.449,0.797,0.756,���k��,7.8,��
2018/12/29,03:30,0.777,1.163,0.816,1.492,1.057,0.449,0.798,0.755,��,6.7,��
2018/12/29,03:40,0.777,1.160,0.815,1.493,1.055,0.450,0.798,0.756,���k��,6.5,��
2018/12/29,03:50,0.778,1.160,0.818,1.493,1.057,0.449,0.797,0.758,���k��,6.0,��
2018/12/29,04:00,0.780,1.163,0.817,1.497,1.060,0.451,0.797,0.757,���k��,8.2,��
2018/12/29,04:10,0.778,1.165,0.816,1.495,1.057,0.451,0.798,0.756,���k��,7.6,��
2018/12/29,04:20,0.778,1.163,0.818,1.496,1.058,0.452,0.798,0.758,���k��,6.8,��
2018/12/29,04:30,0.780,1.164,0.816,1.496,1.057,0.452,0.799,0.756,���k��,6.3,��
2018/12/29,04:40,0.777,1.165,0.818,1.496,1.059,0.450,0.798,0.757,���k��,5.1,��
2018/12/29,04:50,0.778,1.165,0.819,1.492,1.059,0.450,0.799,0.757,�k��,5.8,��
2018/12/29,05:00,0.779,1.165,0.817,1.494,1.057,0.451,0.799,0.757,�k��,4.8,��
2018/12/29,05:10,0.778,1.167,0.820,1.495,1.060,0.451,0.800,0.755,�k�k��,3.0,��
2018/12/29,05:20,0.777,1.163,0.817,1.493,1.059,0.451,0.798,0.756,�k�k��,4.2,��
2018/12/29,05:30,0.779,1.164,0.817,1.494,1.056,0.450,0.798,0.756,�k�k��,5.1,��
2018/12/29,05:40,0.778,1.165,0.818,1.498,1.058,0.451,0.797,0.755,�k�k��,5.5,��
2018/12/29,05:50,0.778,1.165,0.818,1.494,1.058,0.451,0.795,0.755,�k��,5.8,��
2018/12/29,06:00,0.777,1.163,0.816,1.498,1.058,0.450,0.798,0.755,�k�k��,6.0,��
2018/12/29,06:10,0.776,1.161,0.815,1.495,1.060,0.450,0.796,0.756,�k�k��,6.6,��
2018/12/29,06:20,0.778,1.163,0.817,1.496,1.056,0.449,0.795,0.755,�k��,7.2,��
2018/12/29,06:30,0.779,1.165,0.817,1.497,1.058,0.450,0.796,0.755,�k��,8.4,��
2018/12/29,06:40,0.777,1.163,0.819,1.496,1.058,0.451,0.794,0.755,�k��,6.0,��
2018/12/29,06:50,0.780,1.166,0.818,1.494,1.059,0.450,0.795,0.755,���k��,4.6,��
2018/12/29,07:00,0.776,1.163,0.818,1.497,1.057,0.451,0.798,0.755,���k��,4.8,��
2018/12/29,07:10,0.778,1.164,0.818,1.495,1.057,0.451,0.798,0.757,���k��,3.5,��
2018/12/29,07:20,0.778,1.164,0.817,1.497,1.057,0.450,0.795,0.754,���k��,3.6,��
2018/12/29,07:30,0.775,1.163,0.817,1.494,1.058,0.450,0.798,0.755,��,3.0,��
2018/12/29,07:40,0.781,1.164,0.819,1.496,1.059,0.450,0.797,0.754,���k��,3.0,��
2018/12/29,07:50,0.780,1.164,0.819,1.498,1.059,0.450,0.797,0.756,���k��,2.3,��
2018/12/29,08:00,0.778,1.164,0.818,1.497,1.058,0.452,0.798,0.753,���k��,3.2,��
2018/12/29,08:10,0.779,1.167,0.818,1.494,1.058,0.451,0.798,0.756,���k��,3.1,��
2018/12/29,08:20,0.781,1.166,0.818,1.494,1.059,0.451,0.797,0.757,���k��,2.3,��
2018/12/29,08:30,0.779,1.165,0.819,1.495,1.057,0.451,0.797,0.757,���k��,1.9,��
2018/12/29,08:40,0.780,1.167,0.820,1.497,1.058,0.452,0.798,0.756,���k��,1.5,��
2018/12/29,08:50,0.781,1.166,0.821,1.495,1.058,0.452,0.797,0.757,���k��,1.5,��
2018/12/29,09:00,0.779,1.165,0.818,1.497,1.057,0.450,0.797,0.755,���k��,1.7,��
2018/12/29,09:10,0.780,1.166,0.819,1.497,1.059,0.451,0.796,0.757,��쐼,1.7,��
2018/12/29,09:20,0.781,1.166,0.819,1.497,1.058,0.451,0.799,0.756,��쐼,0.9,��
2018/12/29,09:30,0.782,1.166,0.821,1.495,1.058,0.450,0.798,0.758,��,0.9,��
2018/12/29,09:40,0.780,1.167,0.819,1.498,1.060,0.451,0.798,0.757,��쓌,2.0,��
2018/12/29,09:50,0.783,1.166,0.820,1.497,1.060,0.451,0.800,0.756,�쓌,1.4,��
2018/12/29,10:00,0.781,1.166,0.820,1.496,1.059,0.453,0.799,0.756,��쓌,0.9,��
2018/12/29,10:10,0.781,1.168,0.819,1.498,1.060,0.451,0.800,0.758,��쓌,2.0,��
2018/12/29,10:20,0.781,1.168,0.820,1.498,1.060,0.453,0.801,0.754,��쓌,2.0,��
2018/12/29,10:30,0.783,1.168,0.820,1.497,1.061,0.452,0.799,0.757,�쓌,2.5,��
2018/12/29,10:40,0.783,1.170,0.821,1.495,1.059,0.450,0.799,0.758,�쐼,2.0,��
2018/12/29,10:50,0.783,1.164,0.821,1.498,1.061,0.453,0.797,0.756,��,3.8,��
2018/12/29,11:00,0.782,1.167,0.820,1.497,1.059,0.452,0.796,0.757,��,3.8,��
2018/12/29,11:10,0.783,1.167,0.820,1.498,1.061,0.451,0.797,0.757,���쐼,5.7,��
2018/12/29,11:20,0.783,1.167,0.821,1.501,1.062,0.451,0.798,0.757,��,8.8,��
2018/12/29,11:30,0.782,1.168,0.820,1.498,1.061,0.452,0.796,0.759,��,7.1,��
2018/12/29,11:40,0.783,1.168,0.821,1.498,1.061,0.454,0.797,0.756,���k��,6.0,��
2018/12/29,11:50,0.781,1.169,0.821,1.497,1.063,0.453,0.798,0.757,�k�k��,5.6,��
2018/12/29,12:00,0.783,1.167,0.820,1.498,1.062,0.453,0.799,0.759,�k,6.7,��
2018/12/29,12:10,0.781,1.169,0.820,1.498,1.061,0.452,0.798,0.756,�k�k��,5.6,��
2018/12/29,12:20,0.781,1.166,0.821,1.499,1.062,0.451,0.798,0.757,�k�k��,4.8,�L
2018/12/29,12:30,0.782,1.169,0.820,1.502,1.064,0.451,0.798,0.757,�k�k��,4.7,��
2018/12/29,12:40,0.783,1.171,0.821,1.500,1.060,0.450,0.797,0.756,�k�k��,5.8,��
2018/12/29,12:50,0.781,1.170,0.821,1.498,1.062,0.451,0.798,0.757,�k�k��,5.0,�L
2018/12/29,13:00,0.781,1.169,0.820,1.499,1.060,0.452,0.798,0.758,�k�k��,6.5,��
2018/12/29,13:10,0.785,1.168,0.823,1.499,1.063,0.452,0.797,0.758,�k�k��,6.3,��
2018/12/29,13:20,0.784,1.168,0.822,1.500,1.064,0.453,0.797,0.758,�k�k��,6.6,��
2018/12/29,13:30,0.781,1.170,0.820,1.499,1.064,0.452,0.797,0.758,�k�k��,6.6,�L
2018/12/29,13:40,0.782,1.168,0.820,1.497,1.062,0.451,0.798,0.757,�k��,3.9,�L
2018/12/29,13:50,0.783,1.166,0.820,1.495,1.065,0.449,0.798,0.757,�k��,5.4,��
2018/12/29,14:00,0.782,1.166,0.822,1.495,1.065,0.450,0.801,0.758,�k��,4.2,�L
2018/12/29,14:10,0.782,1.168,0.821,1.497,1.064,0.450,0.800,0.757,�k��,2.5,�L
2018/12/29,14:20,0.783,1.167,0.823,1.499,1.063,0.452,0.799,0.759,�k��,3.9,��
2018/12/29,14:30,0.785,1.168,0.822,1.498,1.064,0.452,0.799,0.757,�k�k��,3.9,��
2018/12/29,14:40,0.782,1.166,0.822,1.498,1.062,0.451,0.799,0.757,�k�k��,2.9,��
2018/12/29,14:50,0.781,1.166,0.821,1.497,1.064,0.451,0.799,0.757,�k�k��,4.7,��
2018/12/29,15:00,0.781,1.164,0.820,1.498,1.063,0.450,0.800,0.756,�k��,5.1,��
2018/12/29,15:10,0.781,1.165,0.819,1.497,1.063,0.450,0.799,0.757,�k��,6.0,��
2018/12/29,15:20,0.782,1.166,0.821,1.496,1.063,0.453,0.800,0.757,�k�k��,4.9,��
2018/12/29,15:30,0.781,1.167,0.820,1.497,1.062,0.449,0.799,0.757,�k�k��,3.7,��
2018/12/29,15:40,0.779,1.163,0.819,1.493,1.061,0.452,0.798,0.757,�k��,2.9,��
2018/12/29,15:50,0.780,1.167,0.821,1.497,1.064,0.451,0.799,0.758,�k��,2.0,��
2018/12/29,16:00,0.780,1.166,0.820,1.496,1.062,0.450,0.797,0.756,�k,2.2,��
2018/12/29,16:10,0.781,1.165,0.819,1.494,1.062,0.450,0.799,0.756,�k,2.5,��
2018/12/29,16:20,0.779,1.165,0.820,1.498,1.060,0.451,0.797,0.757,�k�k��,1.5,��
2018/12/29,16:30,0.778,1.165,0.818,1.495,1.063,0.449,0.798,0.756,���k��,2.2,��
2018/12/29,16:40,0.780,1.164,0.820,1.493,1.062,0.451,0.797,0.756,��,4.8,��
2018/12/29,16:50,0.778,1.165,0.819,1.494,1.060,0.449,0.797,0.755,���k��,8.1,��
2018/12/29,17:00,0.778,1.164,0.818,1.493,1.061,0.448,0.799,0.757,��,7.6,��
2018/12/29,17:10,0.778,1.165,0.817,1.494,1.063,0.449,0.799,0.756,���k��,5.9,��
2018/12/29,17:20,0.779,1.160,0.817,1.495,1.060,0.449,0.798,0.756,���k��,5.4,��
2018/12/29,17:30,0.777,1.165,0.818,1.495,1.063,0.449,0.798,0.755,��,5.6,��
2018/12/29,17:40,0.777,1.161,0.817,1.495,1.059,0.448,0.799,0.756,��,5.6,��
2018/12/29,17:50,0.779,1.164,0.817,1.495,1.060,0.449,0.798,0.756,���k��,5.1,��
2018/12/29,18:00,0.777,1.162,0.815,1.494,1.060,0.447,0.798,0.756,���k��,7.2,��
2018/12/29,18:10,0.777,1.164,0.816,1.494,1.060,0.447,0.798,0.756,���k��,6.4,��
2018/12/29,18:20,0.777,1.164,0.818,1.494,1.058,0.448,0.798,0.757,��,5.7,��
2018/12/29,18:30,0.778,1.163,0.818,1.494,1.063,0.449,0.799,0.757,��,5.4,��
2018/12/29,18:40,0.777,1.165,0.818,1.496,1.060,0.451,0.799,0.756,��,5.5,��
2018/12/29,18:50,0.777,1.164,0.818,1.497,1.061,0.450,0.798,0.756,���k��,6.1,��
2018/12/29,19:00,0.776,1.167,0.817,1.496,1.059,0.451,0.798,0.756,��,4.2,��
2018/12/29,19:10,0.779,1.165,0.818,1.494,1.059,0.450,0.796,0.757,���k��,5.4,��
2018/12/29,19:20,0.778,1.164,0.817,1.496,1.061,0.450,0.797,0.757,���k��,3.9,��
2018/12/29,19:30,0.777,1.164,0.817,1.494,1.062,0.450,0.797,0.756,���k��,2.9,��
2018/12/29,19:40,0.776,1.163,0.820,1.497,1.060,0.450,0.798,0.755,���k��,1.7,��
2018/12/29,19:50,0.777,1.164,0.817,1.494,1.060,0.450,0.798,0.756,�k��,1.7,��
2018/12/29,20:00,0.780,1.164,0.817,1.494,1.060,0.450,0.797,0.755,��,3.0,��
2018/12/29,20:10,0.778,1.162,0.818,1.496,1.059,0.449,0.795,0.755,���k��,4.1,��
2018/12/29,20:20,0.776,1.164,0.819,1.494,1.059,0.449,0.797,0.755,���k��,4.7,��
2018/12/29,20:30,0.778,1.162,0.819,1.495,1.060,0.450,0.800,0.757,���k��,4.3,��
2018/12/29,20:40,0.778,1.164,0.819,1.495,1.062,0.452,0.798,0.755,�k��,3.9,��
2018/12/29,20:50,0.779,1.166,0.818,1.495,1.061,0.451,0.796,0.755,�k��,4.1,��
2018/12/29,21:00,0.778,1.166,0.817,1.498,1.060,0.451,0.798,0.756,�k�k��,5.1,��
2018/12/29,21:10,0.777,1.167,0.818,1.499,1.060,0.449,0.796,0.757,�k��,5.7,��
2018/12/29,21:20,0.777,1.166,0.818,1.497,1.059,0.450,0.797,0.756,�k�k��,4.7,��
2018/12/29,21:30,0.777,1.166,0.819,1.496,1.060,0.450,0.799,0.756,�k�k��,3.5,��
2018/12/29,21:40,0.778,1.165,0.818,1.494,1.060,0.449,0.797,0.756,�k��,2.8,�L
2018/12/29,21:50,0.777,1.165,0.819,1.497,1.061,0.451,0.798,0.754,��,2.5,�L
2018/12/29,22:00,0.776,1.165,0.821,1.497,1.062,0.450,0.795,0.756,���쐼,2.3,��
2018/12/29,22:10,0.776,1.163,0.819,1.496,1.058,0.452,0.795,0.756,���쐼,2.2,��
2018/12/29,22:20,0.777,1.163,0.818,1.496,1.060,0.448,0.796,0.755,��,2.8,��
2018/12/29,22:30,0.778,1.164,0.818,1.494,1.058,0.451,0.796,0.755,���쐼,2.6,��
2018/12/29,22:40,0.776,1.163,0.815,1.496,1.059,0.449,0.796,0.756,�쐼,1.9,��
2018/12/29,22:50,0.777,1.164,0.817,1.495,1.061,0.449,0.796,0.756,���쐼,0.6,��
2018/12/29,23:00,0.776,1.162,0.815,1.494,1.058,0.449,0.796,0.754,��,0.8,��
2018/12/29,23:10,0.777,1.161,0.818,1.498,1.058,0.449,0.797,0.756,�쐼,1.2,��
2018/12/29,23:20,0.776,1.161,0.818,1.495,1.059,0.451,0.796,0.755,�쐼,0.9,��
2018/12/29,23:30,0.776,1.163,0.819,1.493,1.057,0.450,0.795,0.755,�쐼,1.9,��
2018/12/29,23:40,0.776,1.161,0.818,1.494,1.057,0.449,0.795,0.755,���쐼,1.7,��
2018/12/29,23:50,0.777,1.163,0.818,1.496,1.059,0.450,0.794,0.756,��,1.5,��
